EW4092 Weather Reports


Display with metric or nautical units.
time (UTC)temp
F
wind
direction
speed
MPH
gust
MPH
rain 1hr
in
rain 24hr
in
rain mn
in
humidity
%
barometer
mb
20260831213027 80 12 1.0 5.0 0.00 0.00 0.00 32 1011.4
20260831211523 79 162 0.0 6.0 0.00 0.00 0.00 32 1011.5
20260831210021 79 224 1.0 4.0 0.00 0.00 0.00 32 1011.9
20260831204518 78 60 1.0 4.0 0.00 0.00 0.00 33 1012.0
20260831203014 77 290 0.0 5.0 0.00 0.00 0.00 34 1012.1
20260831201515 78 23 0.0 6.0 0.00 0.00 0.00 34 1012.5
20260831200007 77 307 1.0 7.0 0.00 0.00 0.00 35 1012.8
20260831194505 77 128 0.0 2.0 0.00 0.00 0.00 36 1013.0
20260831193002 76 328 1.0 5.0 0.00 0.00 0.00 35 1013.1
20260831191603 75 76 0.0 3.0 0.00 0.00 0.00 36 1013.5
20260831190055 74 288 1.0 3.0 0.00 0.00 0.00 39 1013.7
20260831184552 73 55 1.0 4.0 0.00 0.00 0.00 39 1014.0
20260831183049 72 159 0.0 3.0 0.00 0.00 0.00 40 1014.1
20260831181551 72 152 1.0 5.0 0.00 0.00 0.00 43 1014.4
20260831180042 71 87 2.0 4.0 0.00 0.00 0.00 44 1014.5
20260831174639 69 94 0.0 5.0 0.00 0.00 0.00 47 1014.6
20260831173035 69 108 2.0 5.0 0.00 0.00 0.00 48 1014.8
20260831171531 68 200 1.0 4.0 0.00 0.00 0.00 52 1015.0
20260831170036 66 153 0.0 4.0 0.00 0.00 0.00 55 1015.1
20260831164524 65 105 1.0 4.0 0.00 0.00 0.00 56 1015.2
20260831163021 64 115 0.0 2.0 0.00 0.00 0.00 59 1015.4
20260831161518 62 113 3.0 5.0 0.00 0.00 0.00 61 1015.5
20260831154511 60 110 2.0 6.0 0.00 0.00 0.00 64 1015.8
20260831153010 59 98 2.0 5.0 0.00 0.00 0.00 66 1015.8
20260831151505 58 129 0.0 4.0 0.00 0.00 0.00 68 1015.8
20260831150001 56 94 0.0 2.0 0.00 0.00 0.00 70 1015.8
20260831144600 55 89 0.0 2.0 0.00 0.00 0.00 72 1015.7
20260831143101 54 112 0.0 2.0 0.00 0.00 0.00 74 1015.7
20260831141609 51 91 0.0 1.0 0.00 0.00 0.00 77 1015.7
20260831140058 49 92 0.0 2.0 0.00 0.00 0.00 80 1015.7
20260831134557 49 109 0.0 0.0 0.00 0.00 0.00 79 1015.4
20260831133056 50 108 0.0 1.0 0.00 0.00 0.00 78 1015.3
20260831131559 49 109 0.0 1.0 0.00 0.00 0.00 78 1015.3
20260831130054 49 109 0.0 2.0 0.00 0.00 0.00 78 1015.2
20260831124553 50 88 0.0 2.0 0.00 0.00 0.00 78 1015.2
20260831123049 50 113 0.0 1.0 0.00 0.00 0.00 77 1015.1
20260831121549 52 113 0.0 1.0 0.00 0.00 0.00 77 1015.1
20260831114547 51 110 0.0 1.0 0.00 0.00 0.00 77 1015.3
20260831113049 51 103 0.0 2.0 0.00 0.00 0.00 75 1015.3
20260831111540 53 118 0.0 0.0 0.00 0.00 0.00 74 1015.3
20260831110039 53 119 0.0 1.0 0.00 0.00 0.00 73 1015.2
20260831104539 54 113 2.0 4.0 0.00 0.00 0.00 72 1015.0
20260831103039 54 114 1.0 2.0 0.00 0.00 0.00 73 1015.1
20260831101537 53 115 1.0 4.0 0.00 0.00 0.00 72 1015.1
20260831100037 53 111 0.0 3.0 0.00 0.00 0.00 72 1015.1
20260831094533 54 112 1.0 2.0 0.00 0.00 0.00 72 1015.2
20260831093032 54 110 0.0 1.0 0.00 0.00 0.00 72 1015.3
20260831091533 54 114 0.0 3.0 0.00 0.00 0.00 72 1015.4
20260831090028 55 102 0.0 3.0 0.00 0.00 0.00 71 1015.5
20260831084528 56 94 0.0 1.0 0.00 0.00 0.00 72 1015.4
20260831083028 55 94 0.0 2.0 0.00 0.00 0.00 73 1015.4
20260831081525 55 94 0.0 2.0 0.00 0.00 0.00 73 1015.5
20260831080028 55 59 0.0 1.0 0.00 0.00 0.00 74 1015.5
20260831074525 55 59 0.0 1.0 0.00 0.00 0.00 73 1015.5
20260831073021 55 60 0.0 0.0 0.00 0.00 0.00 73 1015.5
20260831071517 56 60 0.0 0.0 0.00 0.00 0.00 72 1015.4
20260831070017 57 59 0.0 2.0 0.00 0.00 0.00 70 1015.5
20260831064513 57 61 0.0 0.0 0.00 0.00 0.00 69 1015.5
20260831063016 57 58 0.0 1.0 0.00 0.00 0.00 66 1015.6
20260831061513 59 90 0.0 1.0 0.00 0.00 0.00 66 1015.7
20260831060012 59 92 0.0 0.0 0.00 0.00 0.00 65 1015.6
20260831054512 59 92 0.0 1.0 0.00 0.00 0.00 65 1015.6
20260831053012 60 90 0.0 0.0 0.00 0.00 0.00 64 1015.6
20260831051518 60 79 0.0 1.0 0.00 0.00 0.00 63 1015.6
20260831050010 62 79 0.0 1.0 0.00 0.00 0.00 59 1015.5
20260831044510 62 132 0.0 1.0 0.00 0.00 0.00 58 1015.5
20260831043010 63 134 0.0 1.0 0.00 0.00 0.00 55 1015.5
20260831041509 64 255 0.0 1.0 0.00 0.00 0.00 52 1015.4
20260831040008 65 255 0.0 0.0 0.00 0.00 0.00 50 1015.3
20260831034508 65 169 0.0 2.0 0.00 0.00 0.00 53 1015.1
20260831033015 66 79 0.0 0.0 0.00 0.00 0.00 47 1014.8
20260831031512 68 79 0.0 0.0 0.00 0.00 0.00 44 1014.7
20260831030005 69 79 0.0 0.0 0.00 0.00 0.00 43 1014.6
20260831024505 72 79 0.0 0.0 0.00 0.00 0.00 38 1014.5
20260831023006 75 79 0.0 1.0 0.00 0.00 0.00 33 1014.5
20260831021507 77 79 0.0 1.0 0.00 0.00 0.00 33 1014.5
20260831020004 75 335 0.0 1.0 0.00 0.00 0.00 34 1014.5
20260831014502 74 335 0.0 0.0 0.00 0.00 0.00 35 1014.4
20260831013002 74 335 0.0 1.0 0.00 0.00 0.00 34 1014.5
20260831011601 75 63 0.0 2.0 0.00 0.00 0.00 32 1014.6
20260831010100 77 335 0.0 4.0 0.00 0.00 0.00 30 1014.6
20260831004600 78 43 0.0 3.0 0.00 0.00 0.00 28 1014.7
20260831003058 78 46 0.0 4.0 0.00 0.00 0.00 28 1014.8
20260831001556 78 102 1.0 5.0 0.00 0.00 0.00 28 1014.8
20260831000054 77 215 0.0 4.0 0.00 0.00 0.00 29 1014.9
20260830234553 77 274 1.0 4.0 0.00 0.00 0.00 31 1014.9
20260830233053 76 281 2.0 4.0 0.00 0.00 0.00 31 1015.0
20260830231551 77 98 0.0 3.0 0.00 0.00 0.00 28 1015.3
20260830230048 76 318 1.0 5.0 0.00 0.00 0.00 30 1015.4
20260830224546 76 284 4.0 7.0 0.00 0.00 0.00 30 1015.7
20260830223041 75 246 2.0 4.0 0.00 0.00 0.00 33 1015.9
20260830221542 75 137 0.0 4.0 0.00 0.00 0.00 32 1016.0
20260830220037 75 98 1.0 6.0 0.00 0.00 0.00 32 1016.2
20260830214534 73 183 0.0 6.0 0.00 0.00 0.00 33 1016.5